| time (UTC) | temp C | wind direction | speed KPH | gust KPH | rain 1hr cm | rain 24hr cm | rain mn cm | humidity % | barometer mb |
| 20260904030104 | 20 | 223 | 12.9 | 27.4 | 0.00 | 0.00 | 0.00 | 86 | 1013.8 |
| 20260904025543 | 20 | 229 | 9.7 | 29.0 | 0.00 | 0.00 | 0.00 | 86 | 1013.7 |
| 20260904025043 | 20 | 231 | 14.5 | 29.0 | 0.00 | 0.00 | 0.00 | 86 | 1013.8 |
| 20260904024608 | 20 | 260 | 6.4 | 27.4 | 0.00 | 0.00 | 0.00 | 86 | 1013.7 |
| 20260904024043 | 20 | 213 | 12.9 | 27.4 | 0.00 | 0.00 | 0.00 | 85 | 1013.8 |
| 20260904023544 | 20 | 187 | 9.7 | 30.6 | 0.00 | 0.00 | 0.00 | 85 | 1013.9 |
| 20260904023100 | 20 | 194 | 16.1 | 30.6 | 0.00 | 0.00 | 0.00 | 85 | 1014.0 |
| 20260904022542 | 20 | 213 | 9.7 | 29.0 | 0.00 | 0.00 | 0.00 | 85 | 1014.1 |
| 20260904022043 | 20 | 196 | 12.9 | 29.0 | 0.00 | 0.00 | 0.00 | 85 | 1014.1 |
| 20260904021557 | 20 | 181 | 11.3 | 27.4 | 0.00 | 0.00 | 0.00 | 85 | 1014.1 |
| 20260904021042 | 20 | 228 | 14.5 | 33.8 | 0.00 | 0.00 | 0.00 | 85 | 1014.2 |
| 20260904020542 | 20 | 248 | 14.5 | 33.8 | 0.00 | 0.00 | 0.00 | 85 | 1014.2 |
| 20260904020133 | 20 | 216 | 12.9 | 29.0 | 0.00 | 0.00 | 0.00 | 84 | 1014.3 |
| 20260904015541 | 20 | 180 | 6.4 | 32.2 | 0.00 | 0.00 | 0.00 | 84 | 1014.2 |
| 20260904015043 | 20 | 210 | 12.9 | 32.2 | 0.00 | 0.00 | 0.00 | 84 | 1014.5 |
| 20260904014648 | 20 | 226 | 11.3 | 25.7 | 0.00 | 0.00 | 0.00 | 84 | 1014.5 |
| 20260904014042 | 20 | 192 | 8.0 | 19.3 | 0.00 | 0.00 | 0.00 | 84 | 1014.6 |
| 20260904013542 | 20 | 206 | 9.7 | 27.4 | 0.00 | 0.00 | 0.00 | 84 | 1014.6 |
| 20260904013108 | 20 | 205 | 11.3 | 29.0 | 0.00 | 0.00 | 0.00 | 84 | 1014.6 |
| 20260904012542 | 20 | 219 | 11.3 | 29.0 | 0.00 | 0.00 | 0.00 | 84 | 1014.8 |
| 20260904012039 | 20 | 185 | 8.0 | 19.3 | 0.00 | 0.00 | 0.00 | 84 | 1014.8 |
| 20260904011607 | 20 | 198 | 8.0 | 29.0 | 0.00 | 0.00 | 0.00 | 84 | 1014.9 |
| 20260904011042 | 20 | 200 | 6.4 | 29.0 | 0.00 | 0.00 | 0.00 | 84 | 1015.0 |
| 20260904010540 | 20 | 220 | 8.0 | 29.0 | 0.00 | 0.00 | 0.00 | 84 | 1015.0 |
| 20260904010106 | 20 | 210 | 11.3 | 29.0 | 0.00 | 0.00 | 0.00 | 84 | 1015.0 |
| 20260904005543 | 20 | 199 | 9.7 | 27.4 | 0.00 | 0.00 | 0.00 | 84 | 1015.0 |
| 20260904005042 | 20 | 202 | 8.0 | 25.7 | 0.00 | 0.00 | 0.00 | 84 | 1015.0 |
| 20260904004606 | 20 | 196 | 8.0 | 27.4 | 0.00 | 0.00 | 0.00 | 84 | 1015.1 |
| 20260904004039 | 20 | 222 | 12.9 | 27.4 | 0.00 | 0.00 | 0.00 | 84 | 1015.2 |
| 20260904003541 | 20 | 213 | 9.7 | 27.4 | 0.00 | 0.00 | 0.00 | 84 | 1015.2 |
| 20260904003111 | 19 | 182 | 9.7 | 33.8 | 0.00 | 0.00 | 0.00 | 84 | 1015.2 |
| 20260904002545 | 19 | 174 | 11.3 | 33.8 | 0.00 | 0.00 | 0.00 | 85 | 1015.3 |
| 20260904002045 | 19 | 238 | 11.3 | 27.4 | 0.00 | 0.00 | 0.00 | 85 | 1015.4 |
| 20260904001557 | 19 | 197 | 9.7 | 27.4 | 0.00 | 0.00 | 0.00 | 85 | 1015.4 |
| 20260904001047 | 19 | 172 | 12.9 | 30.6 | 0.00 | 0.00 | 0.00 | 85 | 1015.3 |
| 20260904000544 | 19 | 219 | 12.9 | 30.6 | 0.00 | 0.00 | 0.00 | 85 | 1015.6 |
| 20260904000107 | 19 | 225 | 12.9 | 27.4 | 0.00 | 0.00 | 0.00 | 86 | 1015.8 |
| 20260903235542 | 19 | 271 | 9.7 | 25.7 | 0.00 | 0.00 | 0.00 | 86 | 1015.9 |
| 20260903235043 | 19 | 190 | 9.7 | 29.0 | 0.00 | 0.00 | 0.00 | 86 | 1016.0 |
| 20260903234613 | 19 | 214 | 9.7 | 29.0 | 0.00 | 0.00 | 0.00 | 86 | 1016.1 |
| 20260903234048 | 19 | 217 | 11.3 | 22.5 | 0.00 | 0.00 | 0.00 | 86 | 1016.1 |
| 20260903233545 | 19 | 225 | 12.9 | 22.5 | 0.00 | 0.00 | 0.00 | 86 | 1016.2 |
| 20260903233101 | 19 | 186 | 8.0 | 20.9 | 0.00 | 0.00 | 0.00 | 87 | 1016.1 |
| 20260903232544 | 19 | 213 | 6.4 | 19.3 | 0.00 | 0.00 | 0.00 | 87 | 1016.2 |
| 20260903232044 | 19 | 206 | 8.0 | 19.3 | 0.00 | 0.00 | 0.00 | 87 | 1016.2 |
| 20260903231601 | 19 | 207 | 6.4 | 24.1 | 0.00 | 0.00 | 0.00 | 87 | 1016.4 |
| 20260903231044 | 19 | 223 | 6.4 | 24.1 | 0.00 | 0.00 | 0.00 | 87 | 1016.4 |
| 20260903230544 | 19 | 180 | 8.0 | 25.7 | 0.00 | 0.00 | 0.00 | 87 | 1016.5 |
| 20260903230109 | 19 | 238 | 9.7 | 25.7 | 0.00 | 0.00 | 0.00 | 87 | 1016.6 |
| 20260903225545 | 19 | 231 | 8.0 | 25.7 | 0.00 | 0.00 | 0.00 | 87 | 1016.7 |
| 20260903225044 | 19 | 215 | 8.0 | 25.7 | 0.00 | 0.00 | 0.00 | 87 | 1016.9 |
| 20260903224558 | 19 | 230 | 9.7 | 27.4 | 0.00 | 0.00 | 0.00 | 87 | 1016.8 |
| 20260903224045 | 19 | 192 | 12.9 | 27.4 | 0.00 | 0.00 | 0.00 | 87 | 1016.8 |
| 20260903223544 | 19 | 236 | 11.3 | 22.5 | 0.00 | 0.00 | 0.00 | 87 | 1016.8 |
| 20260903223101 | 19 | 249 | 6.4 | 14.5 | 0.00 | 0.00 | 0.00 | 87 | 1016.9 |
| 20260903222544 | 19 | 238 | 6.4 | 14.5 | 0.00 | 0.00 | 0.00 | 87 | 1017.0 |
| 20260903222046 | 20 | 194 | 4.8 | 19.3 | 0.00 | 0.00 | 0.00 | 86 | 1016.9 |
| 20260903221603 | 20 | 219 | 8.0 | 19.3 | 0.00 | 0.00 | 0.00 | 86 | 1016.8 |
| 20260903221043 | 20 | 236 | 4.8 | 16.1 | 0.00 | 0.00 | 0.00 | 85 | 1016.8 |
| 20260903220544 | 20 | 200 | 6.4 | 24.1 | 0.00 | 0.00 | 0.00 | 85 | 1016.9 |
| 20260903220107 | 20 | 232 | 11.3 | 24.1 | 0.00 | 0.00 | 0.00 | 85 | 1017.0 |
| 20260903215545 | 20 | 213 | 9.7 | 22.5 | 0.00 | 0.00 | 0.00 | 85 | 1017.0 |
| 20260903215045 | 20 | 214 | 8.0 | 22.5 | 0.00 | 0.00 | 0.00 | 85 | 1017.1 |
| 20260903214610 | 20 | 204 | 9.7 | 22.5 | 0.00 | 0.00 | 0.00 | 86 | 1017.2 |
| 20260903214044 | 20 | 254 | 9.7 | 22.5 | 0.00 | 0.00 | 0.00 | 87 | 1017.4 |
| 20260903213546 | 20 | 212 | 6.4 | 22.5 | 0.00 | 0.00 | 0.00 | 88 | 1017.5 |
| 20260903213100 | 20 | 195 | 6.4 | 16.1 | 0.00 | 0.00 | 0.00 | 87 | 1017.6 |
| 20260903212544 | 20 | 302 | 6.4 | 22.5 | 0.00 | 0.00 | 0.00 | 87 | 1017.7 |
| 20260903212044 | 20 | 232 | 8.0 | 22.5 | 0.00 | 0.00 | 0.00 | 87 | 1017.6 |
| 20260903211602 | 20 | 247 | 12.9 | 22.5 | 0.00 | 0.00 | 0.00 | 86 | 1017.6 |
| 20260903211044 | 21 | 267 | 9.7 | 22.5 | 0.00 | 0.00 | 0.00 | 85 | 1017.6 |
| 20260903210544 | 21 | 215 | 14.5 | 25.7 | 0.00 | 0.00 | 0.00 | 84 | 1017.6 |
| 20260903205544 | 21 | 251 | 12.9 | 25.7 | 0.00 | 0.00 | 0.00 | 84 | 1017.5 |
| 20260903205044 | 21 | 216 | 8.0 | 22.5 | 0.00 | 0.00 | 0.00 | 83 | 1017.4 |
| 20260903204605 | 21 | 184 | 8.0 | 22.5 | 0.00 | 0.00 | 0.00 | 83 | 1017.4 |
| 20260903204043 | 21 | 221 | 11.3 | 25.7 | 0.00 | 0.00 | 0.00 | 83 | 1017.4 |
| 20260903203543 | 21 | 254 | 11.3 | 25.7 | 0.00 | 0.00 | 0.00 | 83 | 1017.4 |
| 20260903203101 | 21 | 236 | 6.4 | 24.1 | 0.00 | 0.00 | 0.00 | 82 | 1017.4 |
| 20260903202547 | 21 | 203 | 12.9 | 30.6 | 0.00 | 0.00 | 0.00 | 81 | 1017.5 |
| 20260903202044 | 21 | 214 | 9.7 | 32.2 | 0.00 | 0.00 | 0.00 | 81 | 1017.5 |
| 20260903201601 | 21 | 237 | 14.5 | 32.2 | 0.00 | 0.00 | 0.00 | 80 | 1017.6 |
| 20260903201044 | 21 | 193 | 9.7 | 27.4 | 0.00 | 0.00 | 0.00 | 80 | 1017.3 |
| 20260903200544 | 21 | 217 | 11.3 | 27.4 | 0.00 | 0.00 | 0.00 | 80 | 1017.4 |
| 20260903200058 | 21 | 204 | 9.7 | 29.0 | 0.00 | 0.00 | 0.00 | 79 | 1017.5 |
| 20260903195543 | 22 | 229 | 12.9 | 29.0 | 0.00 | 0.00 | 0.00 | 79 | 1017.5 |
| 20260903195044 | 22 | 182 | 11.3 | 25.7 | 0.00 | 0.00 | 0.00 | 78 | 1017.5 |
| 20260903194603 | 22 | 220 | 9.7 | 25.7 | 0.00 | 0.00 | 0.00 | 77 | 1017.5 |
| 20260903194044 | 22 | 238 | 9.7 | 20.9 | 0.00 | 0.00 | 0.00 | 76 | 1017.5 |
| 20260903193542 | 22 | 198 | 8.0 | 19.3 | 0.00 | 0.00 | 0.00 | 74 | 1017.4 |
| 20260903193118 | 22 | 194 | 8.0 | 19.3 | 0.00 | 0.00 | 0.00 | 73 | 1017.4 |
| 20260903192545 | 22 | 220 | 3.2 | 16.1 | 0.00 | 0.00 | 0.00 | 71 | 1017.4 |
| 20260903192043 | 22 | 193 | 4.8 | 16.1 | 0.00 | 0.00 | 0.00 | 71 | 1017.5 |
| 20260903191607 | 22 | 236 | 11.3 | 16.1 | 0.00 | 0.00 | 0.00 | 71 | 1017.5 |
| 20260903191043 | 22 | 257 | 3.2 | 11.3 | 0.00 | 0.00 | 0.00 | 71 | 1017.7 |
| 20260903190543 | 22 | 248 | 4.8 | 14.5 | 0.00 | 0.00 | 0.00 | 70 | 1017.7 |
| 20260903190109 | 22 | 251 | 4.8 | 14.5 | 0.00 | 0.00 | 0.00 | 70 | 1017.7 |
| 20260903185543 | 22 | 267 | 8.0 | 16.1 | 0.00 | 0.00 | 0.00 | 70 | 1017.5 |
| 20260903185043 | 22 | 248 | 4.8 | 16.1 | 0.00 | 0.00 | 0.00 | 69 | 1017.4 |
| 20260903184610 | 22 | 292 | 8.0 | 17.7 | 0.00 | 0.00 | 0.00 | 69 | 1017.4 |
| 20260903184044 | 23 | 246 | 8.0 | 20.9 | 0.00 | 0.00 | 0.00 | 68 | 1017.5 |
| 20260903183546 | 23 | 264 | 8.0 | 20.9 | 0.00 | 0.00 | 0.00 | 68 | 1017.5 |
| 20260903183106 | 23 | 260 | 11.3 | 20.9 | 0.00 | 0.00 | 0.00 | 67 | 1017.4 |
| 20260903182547 | 23 | 278 | 9.7 | 19.3 | 0.00 | 0.00 | 0.00 | 67 | 1017.4 |
| 20260903182044 | 23 | 311 | 9.7 | 20.9 | 0.00 | 0.00 | 0.00 | 66 | 1017.4 |
| 20260903181607 | 23 | 277 | 6.4 | 20.9 | 0.00 | 0.00 | 0.00 | 66 | 1017.4 |
| 20260903181045 | 23 | 265 | 9.7 | 19.3 | 0.00 | 0.00 | 0.00 | 66 | 1017.4 |
| 20260903180544 | 23 | 304 | 8.0 | 24.1 | 0.00 | 0.00 | 0.00 | 65 | 1017.5 |
| 20260903180110 | 23 | 346 | 6.4 | 24.1 | 0.00 | 0.00 | 0.00 | 65 | 1017.5 |
| 20260903175542 | 23 | 281 | 12.9 | 30.6 | 0.00 | 0.00 | 0.00 | 64 | 1017.5 |
| 20260903175043 | 23 | 221 | 16.1 | 30.6 | 0.00 | 0.00 | 0.00 | 64 | 1017.5 |
| 20260903174601 | 23 | 248 | 14.5 | 37.0 | 0.00 | 0.00 | 0.00 | 63 | 1017.6 |
| 20260903174043 | 24 | 207 | 17.7 | 37.0 | 0.00 | 0.00 | 0.00 | 62 | 1017.7 |
| 20260903173543 | 24 | 262 | 14.5 | 35.4 | 0.00 | 0.00 | 0.00 | 61 | 1017.6 |
| 20260903173107 | 24 | 226 | 16.1 | 29.0 | 0.00 | 0.00 | 0.00 | 61 | 1017.7 |
| 20260903172544 | 24 | 233 | 14.5 | 32.2 | 0.00 | 0.00 | 0.00 | 61 | 1017.6 |
| 20260903172043 | 24 | 261 | 16.1 | 32.2 | 0.00 | 0.00 | 0.00 | 62 | 1017.6 |
| 20260903171600 | 24 | 216 | 16.1 | 37.0 | 0.00 | 0.00 | 0.00 | 60 | 1017.7 |
| 20260903171044 | 25 | 266 | 14.5 | 37.0 | 0.00 | 0.00 | 0.00 | 60 | 1017.7 |
| 20260903170543 | 25 | 296 | 12.9 | 38.6 | 0.00 | 0.00 | 0.00 | 58 | 1017.5 |
| 20260903170219 | 25 | 317 | 20.9 | 38.6 | 0.00 | 0.00 | 0.00 | 58 | 1017.5 |
| 20260903165544 | 25 | 212 | 17.7 | 32.2 | 0.00 | 0.00 | 0.00 | 58 | 1017.4 |
| 20260903165043 | 25 | 313 | 14.5 | 27.4 | 0.00 | 0.00 | 0.00 | 59 | 1017.6 |
| 20260903164602 | 25 | 202 | 12.9 | 27.4 | 0.00 | 0.00 | 0.00 | 60 | 1017.5 |
| 20260903164044 | 25 | 242 | 9.7 | 24.1 | 0.00 | 0.00 | 0.00 | 64 | 1017.5 |
| 20260903163548 | 25 | 249 | 11.3 | 24.1 | 0.00 | 0.00 | 0.00 | 68 | 1017.3 |
| 20260903163103 | 25 | 215 | 8.0 | 25.7 | 0.00 | 0.00 | 0.00 | 67 | 1017.3 |
| 20260903162546 | 25 | 282 | 8.0 | 27.4 | 0.00 | 0.00 | 0.00 | 66 | 1017.5 |
| 20260903162043 | 25 | 213 | 12.9 | 27.4 | 0.00 | 0.00 | 0.00 | 66 | 1017.5 |
| 20260903161609 | 25 | 231 | 12.9 | 27.4 | 0.00 | 0.00 | 0.00 | 65 | 1017.5 |
| 20260903161045 | 25 | 242 | 11.3 | 27.4 | 0.00 | 0.00 | 0.00 | 65 | 1017.5 |
| 20260903160545 | 25 | 233 | 11.3 | 25.7 | 0.00 | 0.00 | 0.00 | 65 | 1017.5 |
| 20260903155543 | 25 | 234 | 11.3 | 20.9 | 0.00 | 0.00 | 0.00 | 63 | 1017.5 |
| 20260903155044 | 25 | 229 | 8.0 | 29.0 | 0.00 | 0.00 | 0.00 | 63 | 1017.6 |
| 20260903154602 | 25 | 184 | 9.7 | 29.0 | 0.00 | 0.00 | 0.00 | 64 | 1017.6 |
| 20260903154043 | 25 | 234 | 12.9 | 29.0 | 0.00 | 0.00 | 0.00 | 62 | 1017.6 |
| 20260903153543 | 25 | 216 | 11.3 | 27.4 | 0.00 | 0.00 | 0.00 | 63 | 1017.7 |
| 20260903153106 | 25 | 240 | 11.3 | 27.4 | 0.00 | 0.00 | 0.00 | 64 | 1017.8 |
| 20260903152544 | 25 | 257 | 12.9 | 33.8 | 0.00 | 0.00 | 0.00 | 63 | 1017.9 |
| 20260903152046 | 25 | 265 | 16.1 | 33.8 | 0.00 | 0.00 | 0.00 | 63 | 1017.9 |
| 20260903151604 | 25 | 223 | 8.0 | 20.9 | 0.00 | 0.00 | 0.00 | 65 | 1017.8 |
| 20260903151045 | 25 | 271 | 8.0 | 19.3 | 0.00 | 0.00 | 0.00 | 65 | 1017.9 |
| 20260903150544 | 25 | 238 | 9.7 | 22.5 | 0.00 | 0.00 | 0.00 | 65 | 1017.8 |
| 20260903150103 | 25 | 231 | 11.3 | 22.5 | 0.00 | 0.00 | 0.00 | 64 | 1017.9 |
| 20260903145547 | 25 | 199 | 11.3 | 22.5 | 0.00 | 0.00 | 0.00 | 63 | 1017.8 |
| 20260903145043 | 25 | 215 | 9.7 | 24.1 | 0.00 | 0.00 | 0.00 | 63 | 1018.1 |
| 20260903144602 | 25 | 250 | 9.7 | 24.1 | 0.00 | 0.00 | 0.00 | 63 | 1017.9 |
| 20260903144043 | 25 | 244 | 11.3 | 25.7 | 0.00 | 0.00 | 0.00 | 64 | 1018.1 |
| 20260903143543 | 25 | 237 | 11.3 | 25.7 | 0.00 | 0.00 | 0.00 | 64 | 1018.3 |
| 20260903143102 | 25 | 281 | 14.5 | 24.1 | 0.00 | 0.00 | 0.00 | 64 | 1018.2 |
| 20260903142547 | 25 | 282 | 8.0 | 20.9 | 0.00 | 0.00 | 0.00 | 66 | 1018.2 |
| 20260903142045 | 25 | 291 | 12.9 | 29.0 | 0.00 | 0.00 | 0.00 | 66 | 1018.3 |
| 20260903141600 | 25 | 238 | 14.5 | 29.0 | 0.00 | 0.00 | 0.00 | 66 | 1018.4 |
| 20260903141043 | 24 | 211 | 11.3 | 29.0 | 0.00 | 0.00 | 0.00 | 67 | 1018.4 |
| 20260903140543 | 24 | 261 | 14.5 | 29.0 | 0.00 | 0.00 | 0.00 | 66 | 1018.4 |
| 20260903140105 | 24 | 265 | 16.1 | 27.4 | 0.00 | 0.00 | 0.00 | 65 | 1018.6 |
| 20260903135543 | 24 | 219 | 14.5 | 25.7 | 0.00 | 0.00 | 0.00 | 66 | 1018.7 |
| 20260903135042 | 24 | 267 | 12.9 | 24.1 | 0.00 | 0.00 | 0.00 | 67 | 1018.5 |
| 20260903134604 | 24 | 229 | 11.3 | 29.0 | 0.00 | 0.00 | 0.00 | 67 | 1018.6 |
| 20260903134043 | 24 | 238 | 12.9 | 29.0 | 0.00 | 0.00 | 0.00 | 65 | 1018.7 |
| 20260903133544 | 25 | 221 | 16.1 | 29.0 | 0.00 | 0.00 | 0.00 | 64 | 1018.8 |
| 20260903133103 | 25 | 281 | 8.0 | 22.5 | 0.00 | 0.00 | 0.00 | 66 | 1018.8 |
| 20260903132543 | 25 | 197 | 9.7 | 25.7 | 0.00 | 0.00 | 0.00 | 65 | 1018.9 |
| 20260903132043 | 24 | 271 | 14.5 | 25.7 | 0.00 | 0.00 | 0.00 | 66 | 1018.8 |
| 20260903131608 | 24 | 237 | 11.3 | 22.5 | 0.00 | 0.00 | 0.00 | 66 | 1018.9 |
| 20260903131044 | 24 | 215 | 8.0 | 16.1 | 0.00 | 0.00 | 0.00 | 68 | 1018.9 |
| 20260903130543 | 24 | 189 | 8.0 | 19.3 | 0.00 | 0.00 | 0.00 | 70 | 1018.9 |
| 20260903130101 | 24 | 241 | 8.0 | 22.5 | 0.00 | 0.00 | 0.00 | 69 | 1018.9 |
| 20260903125543 | 23 | 279 | 8.0 | 27.4 | 0.00 | 0.00 | 0.00 | 70 | 1019.0 |
| 20260903125045 | 23 | 246 | 12.9 | 27.4 | 0.00 | 0.00 | 0.00 | 70 | 1019.1 |
| 20260903124603 | 23 | 211 | 9.7 | 25.7 | 0.00 | 0.00 | 0.00 | 71 | 1018.9 |
| 20260903124042 | 23 | 256 | 8.0 | 27.4 | 0.00 | 0.00 | 0.00 | 72 | 1019.0 |
| 20260903123543 | 22 | 248 | 16.1 | 27.4 | 0.00 | 0.00 | 0.00 | 71 | 1019.2 |
| 20260903123105 | 22 | 251 | 11.3 | 25.7 | 0.00 | 0.00 | 0.00 | 72 | 1019.3 |
| 20260903122543 | 22 | 247 | 11.3 | 25.7 | 0.00 | 0.00 | 0.00 | 73 | 1019.4 |
| 20260903122044 | 22 | 231 | 11.3 | 24.1 | 0.00 | 0.00 | 0.00 | 73 | 1019.5 |
| 20260903121558 | 22 | 277 | 11.3 | 24.1 | 0.00 | 0.00 | 0.00 | 73 | 1019.5 |
| 20260903121045 | 22 | 215 | 4.8 | 16.1 | 0.00 | 0.00 | 0.00 | 74 | 1019.5 |
| 20260903120545 | 22 | 243 | 9.7 | 24.1 | 0.00 | 0.00 | 0.00 | 73 | 1019.5 |
| 20260903120059 | 22 | 275 | 11.3 | 24.1 | 0.00 | 0.00 | 0.00 | 73 | 1019.7 |
| 20260903115543 | 22 | 271 | 9.7 | 17.7 | 0.00 | 0.00 | 0.00 | 73 | 1019.5 |
| 20260903115043 | 22 | 264 | 9.7 | 17.7 | 0.00 | 0.00 | 0.00 | 74 | 1019.6 |
| 20260903114609 | 22 | 283 | 8.0 | 20.9 | 0.00 | 0.00 | 0.00 | 74 | 1019.5 |
| 20260903114043 | 22 | 213 | 11.3 | 20.9 | 0.00 | 0.00 | 0.00 | 74 | 1019.4 |
| 20260903113543 | 22 | 234 | 6.4 | 17.7 | 0.00 | 0.00 | 0.00 | 74 | 1019.4 |
| 20260903113108 | 22 | 236 | 11.3 | 19.3 | 0.00 | 0.00 | 0.00 | 74 | 1019.4 |
| 20260903112544 | 22 | 218 | 9.7 | 19.3 | 0.00 | 0.00 | 0.00 | 74 | 1019.4 |
| 20260903112044 | 22 | 223 | 8.0 | 19.3 | 0.00 | 0.00 | 0.00 | 74 | 1019.3 |
| 20260903111601 | 22 | 236 | 9.7 | 19.3 | 0.00 | 0.00 | 0.00 | 75 | 1019.3 |
| 20260903111045 | 21 | 257 | 9.7 | 20.9 | 0.00 | 0.00 | 0.00 | 74 | 1019.4 |
| 20260903110543 | 21 | 250 | 11.3 | 20.9 | 0.00 | 0.00 | 0.00 | 75 | 1019.4 |
| 20260903110107 | 21 | 240 | 8.0 | 17.7 | 0.00 | 0.00 | 0.00 | 76 | 1019.5 |
| 20260903105543 | 21 | 225 | 11.3 | 17.7 | 0.00 | 0.00 | 0.00 | 76 | 1019.5 |
| 20260903105046 | 21 | 243 | 9.7 | 17.7 | 0.00 | 0.00 | 0.00 | 76 | 1019.6 |
| 20260903104605 | 21 | 242 | 8.0 | 22.5 | 0.00 | 0.00 | 0.00 | 76 | 1019.7 |
| 20260903104045 | 21 | 273 | 8.0 | 22.5 | 0.00 | 0.00 | 0.00 | 77 | 1019.6 |
| 20260903103545 | 21 | 259 | 11.3 | 22.5 | 0.00 | 0.00 | 0.00 | 77 | 1019.6 |
| 20260903103102 | 21 | 248 | 11.3 | 24.1 | 0.00 | 0.00 | 0.00 | 76 | 1019.7 |
| 20260903102543 | 21 | 265 | 11.3 | 24.1 | 0.00 | 0.00 | 0.00 | 76 | 1019.6 |
| 20260903102043 | 21 | 225 | 11.3 | 24.1 | 0.00 | 0.00 | 0.00 | 75 | 1019.7 |
| 20260903101602 | 21 | 205 | 11.3 | 22.5 | 0.00 | 0.00 | 0.00 | 75 | 1019.7 |
| 20260903101043 | 21 | 240 | 11.3 | 22.5 | 0.00 | 0.00 | 0.00 | 75 | 1019.7 |
| 20260903100544 | 21 | 249 | 11.3 | 19.3 | 0.00 | 0.00 | 0.00 | 75 | 1019.8 |
| 20260903100105 | 21 | 244 | 8.0 | 24.1 | 0.00 | 0.00 | 0.00 | 77 | 1019.6 |
| 20260903095543 | 21 | 257 | 8.0 | 24.1 | 0.00 | 0.03 | 0.00 | 77 | 1019.7 |
| 20260903095043 | 21 | 260 | 12.9 | 24.1 | 0.00 | 0.03 | 0.00 | 76 | 1019.6 |
| 20260903094602 | 21 | 270 | 14.5 | 27.4 | 0.00 | 0.03 | 0.00 | 77 | 1019.4 |
| 20260903094043 | 21 | 254 | 16.1 | 27.4 | 0.00 | 0.03 | 0.00 | 77 | 1019.4 |
| 20260903093546 | 21 | 210 | 6.4 | 22.5 | 0.00 | 0.03 | 0.00 | 78 | 1019.5 |
| 20260903093105 | 20 | 206 | 6.4 | 27.4 | 0.00 | 0.03 | 0.00 | 79 | 1019.5 |
| 20260903092543 | 20 | 240 | 12.9 | 27.4 | 0.00 | 0.03 | 0.00 | 78 | 1019.5 |
| 20260903092043 | 20 | 240 | 8.0 | 24.1 | 0.00 | 0.03 | 0.00 | 79 | 1019.5 |
| 20260903091603 | 20 | 250 | 9.7 | 24.1 | 0.00 | 0.03 | 0.00 | 78 | 1019.5 |
| 20260903091043 | 20 | 254 | 9.7 | 29.0 | 0.00 | 0.03 | 0.00 | 79 | 1019.6 |
| 20260903090543 | 20 | 215 | 12.9 | 29.0 | 0.00 | 0.03 | 0.00 | 78 | 1019.7 |
| 20260903090059 | 20 | 228 | 14.5 | 29.0 | 0.00 | 0.03 | 0.00 | 78 | 1019.6 |
| 20260903085544 | 20 | 314 | 14.5 | 27.4 | 0.00 | 0.03 | 0.00 | 78 | 1019.6 |
| 20260903085043 | 20 | 237 | 14.5 | 25.7 | 0.00 | 0.03 | 0.00 | 79 | 1019.5 |
| 20260903084619 | 20 | 242 | 11.3 | 30.6 | 0.00 | 0.03 | 0.00 | 80 | 1019.5 |
| 20260903084043 | 20 | 229 | 12.9 | 30.6 | 0.00 | 0.03 | 0.00 | 80 | 1019.5 |
| 20260903083543 | 20 | 271 | 16.1 | 27.4 | 0.00 | 0.03 | 0.00 | 80 | 1019.2 |
| 20260903083105 | 20 | 220 | 16.1 | 29.0 | 0.00 | 0.03 | 0.00 | 81 | 1019.3 |
| 20260903082544 | 20 | 234 | 11.3 | 29.0 | 0.00 | 0.03 | 0.00 | 81 | 1019.6 |
| 20260903082043 | 20 | 319 | 8.0 | 30.6 | 0.00 | 0.03 | 0.00 | 82 | 1019.4 |
| 20260903081558 | 20 | 256 | 9.7 | 30.6 | 0.00 | 0.03 | 0.00 | 83 | 1019.4 |
| 20260903081044 | 19 | 245 | 14.5 | 29.0 | 0.00 | 0.03 | 0.00 | 83 | 1019.1 |
| 20260903080543 | 19 | 259 | 14.5 | 29.0 | 0.00 | 0.03 | 0.00 | 84 | 1018.8 |
| 20260903075544 | 19 | 239 | 12.9 | 22.5 | 0.00 | 0.03 | 0.00 | 86 | 1018.9 |
| 20260903075043 | 19 | 228 | 11.3 | 22.5 | 0.00 | 0.03 | 0.00 | 87 | 1018.6 |
| 20260903074605 | 19 | 285 | 9.7 | 20.9 | 0.00 | 0.03 | 0.00 | 87 | 1018.7 |
| 20260903074044 | 19 | 226 | 8.0 | 20.9 | 0.00 | 0.03 | 0.00 | 87 | 1018.5 |
| 20260903073543 | 19 | 222 | 9.7 | 20.9 | 0.00 | 0.03 | 0.00 | 88 | 1018.4 |
| 20260903073109 | 18 | 230 | 8.0 | 20.9 | 0.00 | 0.03 | 0.00 | 88 | 1018.3 |
| 20260903072543 | 18 | 222 | 6.4 | 22.5 | 0.00 | 0.03 | 0.00 | 88 | 1018.3 |
| 20260903072044 | 18 | 254 | 9.7 | 22.5 | 0.00 | 0.03 | 0.00 | 88 | 1018.2 |
| 20260903071605 | 18 | 223 | 6.4 | 17.7 | 0.00 | 0.03 | 0.00 | 88 | 1018.1 |
| 20260903071042 | 18 | 223 | 6.4 | 17.7 | 0.00 | 0.03 | 0.00 | 88 | 1018.2 |
| 20260903070546 | 18 | 222 | 8.0 | 16.1 | 0.00 | 0.03 | 0.00 | 88 | 1018.0 |
| 20260903065540 | 18 | 205 | 4.8 | 14.5 | 0.00 | 0.03 | 0.00 | 88 | 1017.8 |
| 20260903065043 | 18 | 205 | 4.8 | 17.7 | 0.00 | 0.03 | 0.00 | 88 | 1017.9 |
| 20260903064600 | 18 | 229 | 6.4 | 19.3 | 0.00 | 0.03 | 0.00 | 88 | 1017.9 |
| 20260903064043 | 18 | 143 | 6.4 | 19.3 | 0.00 | 0.03 | 0.00 | 88 | 1018.0 |
| 20260903063544 | 18 | 256 | 4.8 | 16.1 | 0.00 | 0.03 | 0.00 | 88 | 1018.2 |
| 20260903063059 | 18 | 212 | 6.4 | 16.1 | 0.00 | 0.03 | 0.00 | 88 | 1018.2 |
| 20260903062543 | 18 | 207 | 6.4 | 14.5 | 0.00 | 0.03 | 0.00 | 88 | 1018.3 |
| 20260903062043 | 18 | 230 | 6.4 | 14.5 | 0.00 | 0.03 | 0.00 | 88 | 1018.4 |
| 20260903061604 | 18 | 211 | 4.8 | 14.5 | 0.00 | 0.03 | 0.00 | 89 | 1018.3 |
| 20260903061042 | 18 | 200 | 6.4 | 14.5 | 0.00 | 0.03 | 0.00 | 89 | 1018.2 |
| 20260903060543 | 18 | 256 | 4.8 | 14.5 | 0.00 | 0.03 | 0.00 | 89 | 1018.3 |
| 20260903060105 | 18 | 229 | 6.4 | 12.9 | 0.00 | 0.03 | 0.00 | 89 | 1018.2 |
| 20260903055544 | 18 | 259 | 4.8 | 12.9 | 0.00 | 0.03 | 0.00 | 89 | 1018.2 |
| 20260903055043 | 18 | 0 | 4.8 | 14.5 | 0.00 | 0.03 | 0.00 | 89 | 1018.2 |
| 20260903054601 | 18 | 209 | 3.2 | 14.5 | 0.00 | 0.03 | 0.00 | 89 | 1018.2 |
| 20260903054043 | 18 | 217 | 4.8 | 16.1 | 0.00 | 0.03 | 0.00 | 89 | 1018.3 |
| 20260903053544 | 18 | 211 | 6.4 | 16.1 | 0.00 | 0.03 | 0.00 | 89 | 1018.2 |
| 20260903053101 | 18 | 226 | 3.2 | 12.9 | 0.00 | 0.03 | 0.00 | 89 | 1018.1 |
| 20260903052543 | 18 | 206 | 4.8 | 12.9 | 0.00 | 0.03 | 0.00 | 89 | 1018.0 |
| 20260903052043 | 18 | 217 | 4.8 | 16.1 | 0.00 | 0.03 | 0.00 | 89 | 1017.9 |
| 20260903051604 | 18 | 218 | 4.8 | 16.1 | 0.00 | 0.03 | 0.00 | 89 | 1017.9 |
| 20260903051042 | 18 | 221 | 8.0 | 16.1 | 0.00 | 0.03 | 0.00 | 89 | 1017.9 |
| 20260903050542 | 18 | 234 | 4.8 | 12.9 | 0.00 | 0.03 | 0.00 | 89 | 1017.8 |
| 20260903050100 | 18 | 234 | 4.8 | 14.5 | 0.00 | 0.03 | 0.00 | 89 | 1018.0 |
| 20260903045544 | 18 | 217 | 4.8 | 14.5 | 0.00 | 0.03 | 0.00 | 89 | 1017.8 |
| 20260903045046 | 18 | 225 | 6.4 | 14.5 | 0.00 | 0.03 | 0.00 | 89 | 1017.9 |
| 20260903044601 | 18 | 275 | 6.4 | 14.5 | 0.00 | 0.03 | 0.00 | 89 | 1017.8 |
| 20260903044043 | 18 | 209 | 6.4 | 14.5 | 0.00 | 0.03 | 0.00 | 89 | 1017.7 |
| 20260903043542 | 18 | 213 | 4.8 | 14.5 | 0.00 | 0.03 | 0.00 | 89 | 1017.8 |
| 20260903043107 | 18 | 193 | 4.8 | 14.5 | 0.00 | 0.03 | 0.00 | 89 | 1017.7 |
| 20260903042543 | 18 | 232 | 4.8 | 12.9 | 0.00 | 0.03 | 0.00 | 89 | 1017.8 |
| 20260903042044 | 18 | 200 | 6.4 | 17.7 | 0.00 | 0.03 | 0.00 | 89 | 1017.7 |
| 20260903041558 | 18 | 242 | 6.4 | 17.7 | 0.00 | 0.03 | 0.00 | 89 | 1017.7 |
| 20260903041043 | 18 | 224 | 4.8 | 11.3 | 0.00 | 0.03 | 0.00 | 89 | 1017.8 |
| 20260903040543 | 18 | 213 | 4.8 | 14.5 | 0.00 | 0.03 | 0.00 | 89 | 1017.7 |
| 20260903040100 | 18 | 213 | 3.2 | 14.5 | 0.00 | 0.03 | 0.00 | 89 | 1017.9 |
| 20260903035543 | 18 | 234 | 3.2 | 19.3 | 0.00 | 0.03 | 0.00 | 89 | 1017.8 |
| 20260903035044 | 18 | 244 | 4.8 | 19.3 | 0.00 | 0.03 | 0.00 | 89 | 1017.8 |
| 20260903034558 | 18 | 191 | 6.4 | 19.3 | 0.00 | 0.03 | 0.00 | 89 | 1017.7 |
| 20260903034045 | 18 | 253 | 3.2 | 12.9 | 0.00 | 0.03 | 0.00 | 89 | 1017.8 |
| 20260903033542 | 18 | 181 | 4.8 | 14.5 | 0.00 | 0.03 | 0.00 | 89 | 1017.8 |
| 20260903033102 | 18 | 222 | 3.2 | 16.1 | 0.00 | 0.03 | 0.00 | 89 | 1017.8 |
| 20260903032543 | 18 | 235 | 6.4 | 16.1 | 0.00 | 0.03 | 0.00 | 89 | 1017.9 |
| 20260903032044 | 18 | 239 | 4.8 | 16.1 | 0.00 | 0.03 | 0.00 | 89 | 1017.9 |
| 20260903031600 | 18 | 210 | 4.8 | 16.1 | 0.00 | 0.03 | 0.00 | 89 | 1017.7 |
| 20260903031043 | 18 | 219 | 8.0 | 19.3 | 0.00 | 0.03 | 0.00 | 89 | 1017.8 |
| 20260903030544 | 18 | 244 | 8.0 | 19.3 | 0.00 | 0.03 | 0.00 | 89 | 1017.9 |